, CO

(GMT )
Cottonwood Pass

Weather History for K7BM - December, 2013

Change the Weather History Date:

Wednesday, December 25, 2013

  Actual Average Record
Temperature  
Mean Temperature - -  
Max Temperature - - - ()
Min Temperature - - - ()
Moisture  
Dew Point -    
Average Humidity    
Maximum Humidity    
Minimum Humidity    
Precipitation  
Precipitation 0.00 in - - ()
Sea Level Pressure  
Sea Level Pressure 30.32 in    
Wind  
Wind Speed 6 mph (SW)    
Max Wind Speed 15 mph    
Max Gust Speed 24 mph    
Visibility 10 miles    
Events      
T = Trace of Precipitation, MM = Missing Value Source: NWS Daily Summary

Daily Weather History Graph

Daily Weather History Graph

Search for Another Location

Airport or City:

Trip Planner

Search our weather history database for the weather conditions in past years. The results will help you decide how hot, cold, wet, or windy it might be!

Date:

Astronomy

Dec. 25, 2013 Rise Set
Actual Time 7:21 AM MST 4:48 PM MST
Civil Twilight 6:51 AM MST 5:18 PM MST
Nautical Twilight 6:18 AM MST 5:52 PM MST
Astronomical Twilight 5:45 AM MST 6:24 PM MST
Moon No Moon Rise 11:51 AM MST (12/25)
Length of Visible Light 10h 27m
Length of Day
9h 27m
Waning Gibbous, 48% of the Moon is Illuminated
Dec 25
Waning Gibbous
Jan 1
New
Jan 7
First Quarter
Jan 15
Full
Jan 23
Last Quarter

Hourly Weather History & Observations

Time (MST) Temp. Dew Point Humidity Pressure Visibility Wind Dir Wind Speed Gust Speed Precip Events Conditions
12:13 AM - - N/A% 30.26 in 10.0 mi SSE 3.5 mph - N/A   Clear
12:34 AM - - N/A% 30.26 in 10.0 mi ESE 5.8 mph - N/A   Clear
12:54 AM - - N/A% 30.25 in 10.0 mi Calm Calm - N/A   Clear
1:14 AM - - N/A% 30.25 in 10.0 mi Calm Calm - N/A   Clear
1:34 AM - - N/A% 30.25 in 10.0 mi NNW 5.8 mph - N/A   Clear
1:53 AM - - N/A% 30.26 in 10.0 mi West 10.4 mph 17.3 mph N/A   Clear
2:14 AM - - N/A% 30.27 in 10.0 mi NW 5.8 mph - N/A   Clear
2:33 AM - - N/A% 30.26 in 10.0 mi West 10.4 mph 16.1 mph N/A   Clear
2:53 AM - - N/A% 30.26 in 10.0 mi NW 8.1 mph 18.4 mph N/A   Clear
3:14 AM - - N/A% 30.26 in 10.0 mi NW 8.1 mph 17.3 mph N/A   Clear
3:34 AM - - N/A% 30.25 in 10.0 mi NW 10.4 mph 17.3 mph N/A   Clear
3:54 AM - - N/A% 30.24 in 10.0 mi WNW 12.7 mph 20.7 mph N/A   Clear
4:14 AM - - N/A% 30.25 in 10.0 mi WNW 11.5 mph 24.2 mph N/A   Clear
4:34 AM - - N/A% 30.25 in 10.0 mi SSW 3.5 mph - N/A   Clear
4:54 AM - - N/A% 30.26 in 10.0 mi Calm Calm - N/A   Clear
5:14 AM - - N/A% 30.27 in 10.0 mi West 6.9 mph - N/A   Clear
5:34 AM - - N/A% 30.28 in 10.0 mi Calm Calm - N/A   Clear
5:54 AM - - N/A% 30.29 in 10.0 mi South 5.8 mph - N/A   Clear
6:14 AM - - N/A% 30.29 in 10.0 mi West 5.8 mph - N/A   Clear
6:33 AM - - N/A% 30.29 in 10.0 mi South 9.2 mph - N/A   Clear
6:54 AM - - N/A% 30.31 in 10.0 mi South 10.4 mph - N/A   Clear
7:14 AM - - N/A% 30.31 in 10.0 mi Calm Calm - N/A   Clear
7:33 AM - - N/A% 30.33 in 10.0 mi SSW 3.5 mph - N/A   Clear
7:54 AM - - N/A% 30.33 in 10.0 mi Calm Calm - N/A   Clear
8:13 AM - - N/A% 30.33 in 10.0 mi Calm Calm - N/A   Clear
8:33 AM - - N/A% 30.34 in 10.0 mi Calm Calm - N/A   Clear
8:54 AM - - N/A% 30.35 in 10.0 mi Calm Calm - N/A   Clear
9:14 AM - - N/A% 30.35 in 10.0 mi SE 5.8 mph - N/A   Clear
9:34 AM - - N/A% 30.36 in 10.0 mi SSE 9.2 mph - N/A   Clear
9:54 AM - - N/A% 30.37 in 10.0 mi SE 8.1 mph - N/A   Clear
10:14 AM - - N/A% 30.37 in 10.0 mi SE 4.6 mph - N/A   Clear
10:34 AM - - N/A% 30.36 in 10.0 mi SE 4.6 mph - N/A   Clear
10:54 AM - - N/A% 30.36 in 10.0 mi SSE 3.5 mph - N/A   Clear
11:14 AM - - N/A% 30.35 in 10.0 mi Calm Calm - N/A   Clear
11:34 AM - - N/A% 30.35 in 10.0 mi ESE 4.6 mph - N/A   Clear
11:54 AM - - N/A% 30.34 in 10.0 mi ESE 4.6 mph - N/A   Clear
12:14 PM - - N/A% 30.33 in 10.0 mi ESE 4.6 mph - N/A   Clear
12:34 PM - - N/A% 30.33 in 10.0 mi SE 3.5 mph - N/A   Clear
12:54 PM - - N/A% 30.32 in 10.0 mi SE 4.6 mph - N/A   Clear
1:14 PM - - N/A% 30.32 in 10.0 mi South 5.8 mph - N/A   Clear
1:34 PM - - N/A% 30.31 in 10.0 mi SSE 6.9 mph - N/A   Clear
1:54 PM - - N/A% 30.31 in 10.0 mi South 5.8 mph - N/A   Clear
2:14 PM - - N/A% 30.31 in 10.0 mi SSE 8.1 mph - N/A   Clear
2:34 PM - - N/A% 30.31 in 10.0 mi SSE 8.1 mph - N/A   Clear
2:54 PM - - N/A% 30.31 in 10.0 mi SSE 3.5 mph - N/A   Clear
3:14 PM - - N/A% 30.31 in 10.0 mi South 11.5 mph - N/A   Clear
3:34 PM - - N/A% 30.32 in 10.0 mi SSE 12.7 mph - N/A   Clear
3:53 PM - - N/A% 30.32 in 10.0 mi South 4.6 mph - N/A   Clear
4:13 PM - - N/A% 30.33 in 10.0 mi Calm Calm - N/A   Clear
4:34 PM - - N/A% 30.33 in 10.0 mi South 3.5 mph - N/A   Clear
4:54 PM - - N/A% 30.33 in 10.0 mi SSW 5.8 mph - N/A   Clear
5:14 PM - - N/A% 30.35 in 10.0 mi Calm Calm - N/A   Clear
5:34 PM - - N/A% 30.34 in 10.0 mi West 4.6 mph - N/A   Clear
5:54 PM - - N/A% 30.34 in 10.0 mi SW 5.8 mph - N/A   Clear
6:14 PM - - N/A% 30.35 in 10.0 mi SSE 3.5 mph - N/A   Clear
6:34 PM - - N/A% 30.35 in 10.0 mi Calm Calm - N/A   Clear
6:54 PM - - N/A% 30.36 in 10.0 mi Calm Calm - N/A   Clear
7:14 PM - - N/A% 30.36 in 10.0 mi North 4.6 mph - N/A   Clear
7:34 PM - - N/A% 30.37 in 10.0 mi North 5.8 mph - N/A   Clear
7:54 PM - - N/A% 30.36 in 10.0 mi NW 9.2 mph - N/A   Clear
8:14 PM - - N/A% 30.36 in 10.0 mi NNW 5.8 mph 16.1 mph N/A   Clear
8:34 PM - - N/A% 30.36 in 10.0 mi NW 8.1 mph 17.3 mph N/A   Clear
8:54 PM - - N/A% 30.36 in 10.0 mi WNW 10.4 mph 19.6 mph N/A   Clear
9:13 PM - - N/A% 30.37 in 10.0 mi West 15.0 mph 24.2 mph N/A   Clear
9:34 PM - - N/A% 30.37 in 10.0 mi West 13.8 mph 21.9 mph N/A   Clear
9:54 PM - - N/A% 30.36 in 10.0 mi West 15.0 mph 20.7 mph N/A   Clear
10:14 PM - - N/A% 30.36 in 10.0 mi WNW 10.4 mph 17.3 mph N/A   Clear
10:34 PM - - N/A% 30.36 in 10.0 mi NW 12.7 mph 19.6 mph N/A   Clear
10:54 PM - - N/A% 30.35 in 10.0 mi NW 10.4 mph 20.7 mph N/A   Clear
11:14 PM - - N/A% 30.35 in 10.0 mi NW 11.5 mph 18.4 mph N/A   Clear
11:34 PM - - N/A% 30.35 in 10.0 mi NNW 10.4 mph 20.7 mph N/A   Clear
11:54 PM - - N/A% 30.35 in 10.0 mi NW 11.5 mph 19.6 mph N/A   Clear